• In United Kingdom
  • List of Countries
  • For 7 days
  • Water Temperature
  • Satellite Maps
  • Weather Map
  • Weather Widgets
  • user-avatar
    Login

    Hourly Weather Nashavar

    Today, 19 February, Monday

    Time Temperature Precipitation Wind Pressure Humidity
    00:00 +16°C° 0 mm 1 mps 730 mmHg 28%
    01:00 +15°C° 0 mm 1 mps 730 mmHg 28%
    02:00 +15°C° 0 mm 1 mps 730 mmHg 28%
    03:00 +15°C° 0 mm 1 mps 730 mmHg 28%
    04:00 +14°C° 0 mm 1 mps 730 mmHg 28%
    05:00 +14°C° 0 mm 1 mps 730 mmHg 28%
    06:00 +14°C° 0 mm 1 mps 730 mmHg 29%
    07:00 +15°C° 0 mm 1 mps 731 mmHg 29%
    08:00 +15°C° 0 mm 1 mps 731 mmHg 29%
    09:00 +18°C° 0 mm 1 mps 731 mmHg 26%
    10:00 +20°C° 0 mm 1 mps 732 mmHg 22%
    11:00 +22°C° 0 mm 1 mps 732 mmHg 18%
    12:00 +23°C° 0 mm 1 mps 732 mmHg 18%
    13:00 +24°C° 0 mm 1 mps 732 mmHg 18%
    14:00 +24°C° 0 mm 1 mps 732 mmHg 17%
    15:00 +24°C° 0 mm 1 mps 731 mmHg 19%
    16:00 +24°C° 0 mm 1 mps 731 mmHg 21%
    17:00 +24°C° 0 mm 1 mps 731 mmHg 23%
    18:00 +22°C° 0 mm 1 mps 731 mmHg 25%
    19:00 +21°C° 0 mm 1 mps 732 mmHg 27%
    20:00 +20°C° 0 mm 1 mps 732 mmHg 29%
    21:00 +19°C° 0 mm 1 mps 732 mmHg 29%
    22:00 +19°C° 0 mm 1 mps 732 mmHg 29%
    23:00 +19°C° 0 mm 1 mps 732 mmHg 30%

    Tomorrow, 20 February, Tuesday

    Time Temperature Precipitation Wind Pressure Humidity
    00:00 +18°C° 0 mm 1 mps 732 mmHg 30%
    01:00 +18°C° 0 mm 1 mps 731 mmHg 31%
    02:00 +16°C° 0 mm 1 mps 731 mmHg 31%
    03:00 +16°C° 0 mm 1 mps 731 mmHg 31%
    04:00 +16°C° 0 mm 1 mps 731 mmHg 31%
    05:00 +16°C° 0 mm 1 mps 730 mmHg 31%
    06:00 +16°C° 0 mm 1 mps 731 mmHg 31%
    07:00 +18°C° 0 mm 1 mps 731 mmHg 32%
    08:00 +18°C° 0 mm 1 mps 732 mmHg 32%
    09:00 +20°C° 0 mm 1 mps 732 mmHg 28%
    10:00 +21°C° 0 mm 1 mps 732 mmHg 25%
    11:00 +23°C° 0 mm 1 mps 732 mmHg 21%
    12:00 +24°C° 0 mm 1 mps 732 mmHg 20%
    13:00 +24°C° 0 mm 1 mps 732 mmHg 19%
    14:00 +25°C° 0 mm 1 mps 731 mmHg 18%
    15:00 +25°C° 0 mm 1 mps 731 mmHg 19%
    16:00 +25°C° 0 mm 1 mps 731 mmHg 21%
    17:00 +25°C° 0 mm 1 mps 730 mmHg 22%
    18:00 +24°C° 0 mm 1 mps 730 mmHg 24%
    19:00 +22°C° 0 mm 1 mps 731 mmHg 25%
    20:00 +21°C° 0 mm 1 mps 731 mmHg 27%
    21:00 +21°C° 0 mm 1 mps 731 mmHg 29%
    22:00 +20°C° 0 mm 1 mps 731 mmHg 31%
    23:00 +20°C° 0 mm 1 mps 731 mmHg 33%

    Day after tomorrow, 21 February, Wednesday

    Time Temperature Precipitation Wind Pressure Humidity
    00:00 +19°C° 0.1 mm 1 mps 731 mmHg 35%
    01:00 +19°C° 0.1 mm 1 mps 730 mmHg 37%
    02:00 +19°C° 0.1 mm 1 mps 730 mmHg 40%
    03:00 +18°C° 0 mm 1 mps 730 mmHg 41%
    04:00 +17°C° 0 mm 2 mps 730 mmHg 42%
    05:00 +16°C° 0 mm 2 mps 730 mmHg 44%
    06:00 +17°C° 0 mm 2 mps 730 mmHg 44%
    07:00 +17°C° 0 mm 2 mps 731 mmHg 45%
    08:00 +17°C° 0 mm 2 mps 731 mmHg 45%
    09:00 +19°C° 0 mm 2 mps 731 mmHg 41%
    10:00 +21°C° 0 mm 2 mps 731 mmHg 36%
    11:00 +23°C° 0 mm 2 mps 731 mmHg 31%
    12:00 +24°C° 0 mm 2 mps 731 mmHg 30%
    13:00 +25°C° 0 mm 2 mps 730 mmHg 28%
    14:00 +25°C° 0 mm 2 mps 730 mmHg 27%
    15:00 +25°C° 0 mm 2 mps 730 mmHg 28%
    16:00 +25°C° 0 mm 2 mps 729 mmHg 29%
    17:00 +25°C° 0 mm 2 mps 729 mmHg 29%
    18:00 +23°C° 0 mm 1 mps 729 mmHg 33%
    19:00 +22°C° 0 mm 1 mps 730 mmHg 36%
    20:00 +20°C° 0 mm 1 mps 730 mmHg 39%
    21:00 +20°C° 0 mm 1 mps 730 mmHg 40%
    22:00 +20°C° 0 mm 1 mps 730 mmHg 40%
    23:00 +19°C° 0 mm 1 mps 731 mmHg 41%

    22 February, Thursday

    Time Temperature Precipitation Wind Pressure Humidity
    00:00 +19°C° 0 mm 1 mps 730 mmHg 41%
    01:00 +17°C° 0 mm 2 mps 730 mmHg 41%
    02:00 +17°C° 0 mm 2 mps 730 mmHg 41%
    03:00 +16°C° 0 mm 2 mps 730 mmHg 40%
    04:00 +16°C° 0 mm 2 mps 729 mmHg 40%
    05:00 +16°C° 0 mm 2 mps 729 mmHg 39%
    06:00 +16°C° 0 mm 2 mps 729 mmHg 38%
    07:00 +16°C° 0 mm 2 mps 730 mmHg 37%
    08:00 +17°C° 0 mm 2 mps 730 mmHg 36%
    09:00 +19°C° 0 mm 2 mps 730 mmHg 31%
    10:00 +21°C° 0 mm 2 mps 730 mmHg 27%
    11:00 +23°C° 0 mm 2 mps 731 mmHg 23%
    12:00 +24°C° 0 mm 2 mps 730 mmHg 22%
    13:00 +25°C° 0 mm 2 mps 730 mmHg 22%
    14:00 +25°C° 0 mm 2 mps 729 mmHg 21%
    15:00 +25°C° 0 mm 1 mps 729 mmHg 22%
    16:00 +25°C° 0 mm 1 mps 729 mmHg 24%
    17:00 +25°C° 0 mm 1 mps 729 mmHg 25%
    18:00 +23°C° 0 mm 1 mps 729 mmHg 27%
    19:00 +22°C° 0 mm 1 mps 729 mmHg 30%
    20:00 +20°C° 0 mm 1 mps 730 mmHg 33%
    21:00 +20°C° 0 mm 1 mps 730 mmHg 33%
    22:00 +19°C° 0 mm 1 mps 730 mmHg 33%
    23:00 +19°C° 0 mm 1 mps 730 mmHg 33%

    23 February, Friday

    Time Temperature Precipitation Wind Pressure Humidity
    00:00 +19°C° 0 mm 1 mps 730 mmHg 32%
    01:00 +18°C° 0 mm 1 mps 730 mmHg 32%
    02:00 +18°C° 0 mm 1 mps 730 mmHg 31%
    03:00 +18°C° 0 mm 1 mps 730 mmHg 30%
    04:00 +16°C° 0 mm 2 mps 729 mmHg 30%
    05:00 +16°C° 0 mm 2 mps 729 mmHg 29%
    06:00 +17°C° 0 mm 2 mps 730 mmHg 29%
    07:00 +17°C° 0 mm 2 mps 730 mmHg 29%
    08:00 +17°C° 0 mm 2 mps 731 mmHg 29%
    09:00 +19°C° 0 mm 2 mps 731 mmHg 28%
    10:00 +20°C° 0 mm 2 mps 732 mmHg 26%
    11:00 +21°C° 0 mm 2 mps 732 mmHg 24%
    12:00 +23°C° 0 mm 2 mps 732 mmHg 23%
    13:00 +24°C° 0 mm 2 mps 731 mmHg 22%
    14:00 +25°C° 0 mm 2 mps 731 mmHg 21%
    15:00 +25°C° 0 mm 2 mps 731 mmHg 22%
    16:00 +24°C° 0 mm 2 mps 730 mmHg 23%
    17:00 +24°C° 0 mm 2 mps 730 mmHg 24%
    18:00 +23°C° 0 mm 2 mps 730 mmHg 27%
    19:00 +21°C° 0 mm 2 mps 731 mmHg 29%
    20:00 +20°C° 0 mm 1 mps 731 mmHg 32%
    21:00 +19°C° 0 mm 2 mps 731 mmHg 33%
    22:00 +19°C° 0 mm 2 mps 731 mmHg 33%
    23:00 +18°C° 0 mm 2 mps 731 mmHg 34%

    24 February, Saturday

    Time Temperature Precipitation Wind Pressure Humidity
    00:00 +18°C° 0 mm 2 mps 731 mmHg 34%
    01:00 +18°C° 0 mm 2 mps 731 mmHg 34%
    02:00 +18°C° 0 mm 2 mps 731 mmHg 35%
    03:00 +18°C° 0 mm 2 mps 731 mmHg 35%
    04:00 +17°C° 0 mm 2 mps 730 mmHg 35%
    05:00 +17°C° 0 mm 2 mps 730 mmHg 35%
    06:00 +17°C° 0 mm 2 mps 731 mmHg 36%
    07:00 +17°C° 0 mm 2 mps 731 mmHg 38%
    08:00 +17°C° 0 mm 2 mps 732 mmHg 39%
    09:00 +18°C° 0.2 mm 2 mps 732 mmHg 40%
    10:00 +18°C° 0.2 mm 2 mps 733 mmHg 42%
    11:00 +19°C° 0.2 mm 1 mps 733 mmHg 44%
    12:00 +17°C° 0.6 mm 2 mps 733 mmHg 49%
    13:00 +17°C° 0.6 mm 2 mps 733 mmHg 54%
    14:00 +16°C° 0.6 mm 2 mps 733 mmHg 59%
    15:00 +16°C° 0.1 mm 2 mps 732 mmHg 59%
    16:00 +16°C° 0.1 mm 2 mps 732 mmHg 60%
    17:00 +16°C° 0.1 mm 2 mps 732 mmHg 60%
    18:00 +16°C° 0 mm 1 mps 732 mmHg 61%
    19:00 +15°C° 0 mm 1 mps 733 mmHg 62%
    20:00 +15°C° 0 mm 1 mps 733 mmHg 63%
    21:00 +15°C° 0 mm 1 mps 733 mmHg 61%
    22:00 +15°C° 0 mm 2 mps 733 mmHg 59%
    23:00 +15°C° 0 mm 2 mps 733 mmHg 57%
    Show more